When you browse on this site, cookies collect data to enhance your experience and personalize the content and advertising you see.
Visit our Privacy Policy to learn more. By continuing to use the site, you agree to this use of cookies and data.

Meteo pe oră la Barinas

Astăzi, 5 August, Miercuri

Timp Temperatura Precipitaţii Vânt Presiune Umiditate
00:00 +25°C° 1 mm 1 m/s 745 mmHg 92%
01:00 +24°C° 1 mm 1 m/s 744 mmHg 93%
02:00 +24°C° 0 mm 1 m/s 744 mmHg 93%
03:00 +24°C° 0 mm 1 m/s 744 mmHg 92%
04:00 +24°C° 0 mm 1 m/s 743 mmHg 92%
05:00 +25°C° 0 mm 1 m/s 744 mmHg 91%
06:00 +23°C° 0 mm 0 m/s 744 mmHg 90%
07:00 +24°C° 0 mm 0 m/s 744 mmHg 90%
08:00 +27°C° 0.2 mm 1 m/s 745 mmHg 83%
09:00 +29°C° 0.2 mm 2 m/s 745 mmHg 76%
10:00 +30°C° 0.2 mm 3 m/s 745 mmHg 69%
11:00 +31°C° 0.3 mm 3 m/s 744 mmHg 69%
12:00 +31°C° 0.3 mm 3 m/s 744 mmHg 69%
13:00 +31°C° 0.3 mm 3 m/s 743 mmHg 69%
14:00 +31°C° 1 mm 3 m/s 743 mmHg 73%
15:00 +30°C° 1 mm 2 m/s 742 mmHg 78%
16:00 +30°C° 1 mm 2 m/s 741 mmHg 82%
17:00 +28°C° 1.3 mm 2 m/s 742 mmHg 85%
18:00 +27°C° 1.3 mm 1 m/s 742 mmHg 88%
19:00 +26°C° 1.3 mm 1 m/s 743 mmHg 91%
20:00 +26°C° 1.6 mm 1 m/s 743 mmHg 92%
21:00 +26°C° 1.6 mm 1 m/s 744 mmHg 93%
22:00 +25°C° 1.6 mm 1 m/s 744 mmHg 94%
23:00 +25°C° 0.3 mm 1 m/s 744 mmHg 94%

Mâine, 6 August, Joi

Timp Temperatura Precipitaţii Vânt Presiune Umiditate
00:00 +25°C° 0.3 mm 1 m/s 744 mmHg 94%
01:00 +25°C° 0.3 mm 1 m/s 743 mmHg 94%
02:00 +25°C° 0.1 mm 1 m/s 743 mmHg 94%
03:00 +24°C° 0.1 mm 1 m/s 743 mmHg 95%
04:00 +22°C° 0.1 mm 0 m/s 743 mmHg 95%
05:00 +23°C° 0 mm 0 m/s 743 mmHg 93%
06:00 +23°C° 0 mm 0 m/s 744 mmHg 92%
07:00 +23°C° 0 mm 0 m/s 744 mmHg 91%
08:00 +26°C° 0.2 mm 1 m/s 744 mmHg 89%
09:00 +26°C° 0.2 mm 2 m/s 745 mmHg 87%
10:00 +27°C° 0.2 mm 2 m/s 745 mmHg 85%
11:00 +27°C° 0.1 mm 2 m/s 745 mmHg 83%
12:00 +27°C° 0.1 mm 2 m/s 744 mmHg 81%
13:00 +27°C° 0.1 mm 1 m/s 744 mmHg 79%
14:00 +27°C° 0 mm 1 m/s 743 mmHg 80%
15:00 +27°C° 0 mm 1 m/s 743 mmHg 81%
16:00 +27°C° 0 mm 1 m/s 742 mmHg 82%
17:00 +27°C° 0 mm 1 m/s 743 mmHg 84%
18:00 +24°C° 0 mm 0 m/s 743 mmHg 87%
19:00 +23°C° 0 mm 0 m/s 743 mmHg 90%
20:00 +23°C° 0 mm 0 m/s 744 mmHg 90%
21:00 +23°C° 0 mm 0 m/s 744 mmHg 90%
22:00 +23°C° 0 mm 0 m/s 745 mmHg 90%
23:00 +23°C° 0 mm 0 m/s 744 mmHg 90%

Poimâine, 7 August, Vineri

Timp Temperatura Precipitaţii Vânt Presiune Umiditate
00:00 +22°C° 0 mm 0 m/s 744 mmHg 91%
01:00 +22°C° 0 mm 0 m/s 744 mmHg 92%
02:00 +22°C° 0 mm 0 m/s 744 mmHg 92%
03:00 +22°C° 0 mm 0 m/s 744 mmHg 92%
04:00 +22°C° 0 mm 0 m/s 743 mmHg 92%
05:00 +22°C° 0 mm 0 m/s 744 mmHg 91%
06:00 +23°C° 0 mm 0 m/s 744 mmHg 89%
07:00 +23°C° 0 mm 0 m/s 745 mmHg 88%
08:00 +24°C° 0 mm 0 m/s 745 mmHg 86%
09:00 +27°C° 0 mm 1 m/s 745 mmHg 83%
10:00 +28°C° 0 mm 1 m/s 745 mmHg 80%
11:00 +29°C° 0.1 mm 1 m/s 745 mmHg 76%
12:00 +30°C° 0.1 mm 2 m/s 744 mmHg 72%
13:00 +31°C° 0.1 mm 2 m/s 744 mmHg 68%
14:00 +31°C° 0.2 mm 2 m/s 743 mmHg 70%
15:00 +30°C° 0.2 mm 2 m/s 743 mmHg 73%
16:00 +30°C° 0.2 mm 2 m/s 742 mmHg 76%
17:00 +29°C° 0.5 mm 2 m/s 743 mmHg 81%
18:00 +27°C° 0.5 mm 1 m/s 743 mmHg 87%
19:00 +26°C° 0.5 mm 1 m/s 744 mmHg 93%
20:00 +26°C° 0 mm 1 m/s 744 mmHg 93%
21:00 +25°C° 0 mm 1 m/s 745 mmHg 93%
22:00 +23°C° 0 mm 0 m/s 745 mmHg 93%
23:00 +23°C° 0.1 mm 0 m/s 745 mmHg 93%

8 August, Sâmbătă

Timp Temperatura Precipitaţii Vânt Presiune Umiditate
00:00 +23°C° 0.1 mm 0 m/s 744 mmHg 93%
01:00 +23°C° 0.1 mm 0 m/s 744 mmHg 93%
02:00 +22°C° 0 mm 0 m/s 744 mmHg 93%
03:00 +22°C° 0 mm 0 m/s 744 mmHg 94%
04:00 +22°C° 0 mm 0 m/s 744 mmHg 94%
05:00 +23°C° 0 mm 0 m/s 744 mmHg 92%
06:00 +23°C° 0 mm 0 m/s 745 mmHg 91%
07:00 +24°C° 0 mm 0 m/s 745 mmHg 90%
08:00 +27°C° 0.4 mm 1 m/s 745 mmHg 85%
09:00 +29°C° 0.4 mm 1 m/s 746 mmHg 80%
10:00 +30°C° 0.4 mm 2 m/s 746 mmHg 75%
11:00 +30°C° 0.8 mm 2 m/s 745 mmHg 75%
12:00 +30°C° 0.8 mm 2 m/s 744 mmHg 76%
13:00 +31°C° 0.8 mm 2 m/s 744 mmHg 77%
14:00 +30°C° 1.4 mm 2 m/s 743 mmHg 80%
15:00 +30°C° 1.4 mm 2 m/s 743 mmHg 83%
16:00 +29°C° 1.4 mm 2 m/s 742 mmHg 86%
17:00 +28°C° 0.6 mm 2 m/s 743 mmHg 88%
18:00 +27°C° 0.6 mm 1 m/s 743 mmHg 89%
19:00 +26°C° 0.6 mm 1 m/s 744 mmHg 91%
20:00 +26°C° 0.6 mm 1 m/s 744 mmHg 92%
21:00 +26°C° 0.6 mm 1 m/s 745 mmHg 92%
22:00 +25°C° 0.6 mm 1 m/s 745 mmHg 93%
23:00 +25°C° 0.1 mm 1 m/s 745 mmHg 94%

9 August, Duminică

Timp Temperatura Precipitaţii Vânt Presiune Umiditate
00:00 +25°C° 0.1 mm 1 m/s 744 mmHg 94%
01:00 +23°C° 0.1 mm 0 m/s 744 mmHg 95%
02:00 +22°C° 0 mm 0 m/s 744 mmHg 94%
03:00 +22°C° 0 mm 0 m/s 744 mmHg 94%
04:00 +22°C° 0 mm 0 m/s 744 mmHg 94%
05:00 +23°C° 0 mm 0 m/s 744 mmHg 93%
06:00 +23°C° 0 mm 0 m/s 744 mmHg 92%
07:00 +23°C° 0 mm 0 m/s 745 mmHg 91%
08:00 +25°C° 0.1 mm 0 m/s 745 mmHg 86%
09:00 +28°C° 0.1 mm 1 m/s 745 mmHg 80%
10:00 +29°C° 0.1 mm 1 m/s 745 mmHg 75%
11:00 +30°C° 0.5 mm 2 m/s 745 mmHg 72%
12:00 +30°C° 0.5 mm 2 m/s 744 mmHg 70%
13:00 +31°C° 0.5 mm 3 m/s 743 mmHg 67%
14:00 +31°C° 0.1 mm 2 m/s 743 mmHg 69%
15:00 +30°C° 0.1 mm 2 m/s 742 mmHg 72%
16:00 +30°C° 0.1 mm 2 m/s 742 mmHg 74%
17:00 +29°C° 0.5 mm 2 m/s 742 mmHg 80%
18:00 +27°C° 0.5 mm 1 m/s 742 mmHg 87%
19:00 +26°C° 0.5 mm 1 m/s 743 mmHg 93%
20:00 +23°C° 0.1 mm 0 m/s 743 mmHg 93%
21:00 +23°C° 0.1 mm 0 m/s 744 mmHg 93%
22:00 +23°C° 0.1 mm 0 m/s 744 mmHg 93%
23:00 +23°C° 0.3 mm 0 m/s 744 mmHg 93%

10 August, Luni

Timp Temperatura Precipitaţii Vânt Presiune Umiditate
00:00 +23°C° 0.3 mm 0 m/s 743 mmHg 94%
01:00 +22°C° 0.3 mm 0 m/s 743 mmHg 94%
02:00 +22°C° 0.3 mm 0 m/s 743 mmHg 94%
03:00 +22°C° 0.3 mm 0 m/s 742 mmHg 94%
04:00 +22°C° 0.3 mm 0 m/s 742 mmHg 94%
05:00 +25°C° 0 mm 1 m/s 743 mmHg 93%
06:00 +25°C° 0 mm 1 m/s 743 mmHg 93%
07:00 +25°C° 0 mm 1 m/s 744 mmHg 92%
08:00 +27°C° 0.1 mm 1 m/s 744 mmHg 87%
09:00 +26°C° 0.1 mm 0 m/s 744 mmHg 81%
10:00 +27°C° 0.1 mm 0 m/s 744 mmHg 76%
11:00 +30°C° 0.8 mm 1 m/s 743 mmHg 71%
12:00 +31°C° 0.8 mm 1 m/s 743 mmHg 66%
13:00 +32°C° 0.8 mm 2 m/s 742 mmHg 61%
14:00 +32°C° 0 mm 2 m/s 741 mmHg 64%
15:00 +31°C° 0 mm 2 m/s 741 mmHg 67%
16:00 +31°C° 0 mm 3 m/s 740 mmHg 71%
17:00 +29°C° 0.6 mm 2 m/s 741 mmHg 77%
18:00 +28°C° 0.6 mm 1 m/s 741 mmHg 84%
19:00 +26°C° 0.6 mm 1 m/s 741 mmHg 91%
20:00 +26°C° 0 mm 1 m/s 742 mmHg 91%
21:00 +26°C° 0 mm 1 m/s 742 mmHg 91%
22:00 +25°C° 0 mm 1 m/s 743 mmHg 91%
23:00 +25°C° 0 mm 1 m/s 742 mmHg 91%
Arată mai mult